This is the latest recevied weather packets stored in our database for station/object KR8N. If no packets are shown the sender has not sent any weather packets the latest 10 day(s).
| Time | Temp. | Humidity | Pressure | Rain* | Wind** | Luminosity | Snow |
|---|---|---|---|---|---|---|---|
| 1778002384 | 22.22° C | 40% | 1016.7 hPa | 0 mm | - | 483 W/m² | - |
| 1778002081 | 21.67° C | 38% | 1016.7 hPa | 0 mm | - | 487 W/m² | - |
| 1778001778 | 22.22° C | 37% | 1016.3 hPa | 0 mm | - | 450 W/m² | - |
| 1778001473 | 22.22° C | 39% | 1016.4 hPa | 0 mm | - | 578 W/m² | - |
| 1778001170 | 22.22° C | 39% | 1016.3 hPa | 0 mm | - | 688 W/m² | - |
| 1778000867 | 22.22° C | 42% | 1016.6 hPa | 0 mm | - | 645 W/m² | - |
| 1778000564 | 22.22° C | 40% | 1016.7 hPa | 0 mm | - | 695 W/m² | - |
| 1777999960 | 22.22° C | 41% | 1016.9 hPa | 0 mm | - | 703 W/m² | - |
| 1777999656 | 22.22° C | 39% | 1016.9 hPa | 0 mm | - | 620 W/m² | - |
| 1777999353 | 21.67° C | 42% | 1017.1 hPa | 0 mm | - | 773 W/m² | - |
| 1777999051 | 22.22° C | 41% | 1017.1 hPa | 0 mm | - | 694 W/m² | - |
| 1777998750 | 22.78° C | 39% | 1017.1 hPa | 0 mm | - | 827 W/m² | - |
| 1777998446 | 21.67° C | 40% | 1017 hPa | 0 mm | - | 829 W/m² | - |
| 1777998143 | 21.67° C | 44% | 1017.1 hPa | 0 mm | - | 792 W/m² | - |
| 1777997840 | 22.22° C | 44% | 1017.4 hPa | 0 mm | - | 775 W/m² | - |
| 1777997538 | 21.67° C | 43% | 1017.4 hPa | 0 mm | - | 823 W/m² | - |
| 1777997235 | 21.67° C | 40% | 1017.4 hPa | 0 mm | - | 884 W/m² | - |
| 1777996933 | 21.67° C | 40% | 1017.6 hPa | 0 mm | - | 700 W/m² | - |
| 1777996629 | 22.22° C | 41% | 1017.1 hPa | 0 mm | - | 820 W/m² | - |
| 1777996325 | 22.22° C | 44% | 1017.4 hPa | 0 mm | - | 795 W/m² | - |
| 1777996021 | 21.67° C | 44% | 1017.4 hPa | 0 mm | - | 818 W/m² | - |
| 1777995718 | 21.11° C | 46% | 1017.3 hPa | 0 mm | - | 818 W/m² | - |
| 1777995415 | 21.67° C | 41% | 1017.2 hPa | 0 mm | - | 247 W/m² | - |
| 1777995112 | 21.67° C | 43% | 1017.4 hPa | 0 mm | - | 785 W/m² | - |
| 1777994809 | 21.11° C | 43% | 1017.4 hPa | 0 mm | - | 743 W/m² | - |
* Rain latest hour (hover to see other rain measurements)
** Current wind speed in m/s (hover to see current wind gust speed)